Flag for Germany Weather past 2 weeks in Cloppenburg, Lower Saxony, Germany

Now
54 °F

Cool.


Feels Like: 52 °F
Forecast: 48 / 60 °F
Wind: 6 mph from West

Location: Meppen-Mil

Current Time: Sep 22, 2014 at 12:28:33 AM

Latest Report: Sep 21, 2014 at 11:20 PM


Visibility: 4 mi

Pressure: 30.07 "Hg

Humidity: 88%

Dew point: 50 °F

Location of CloppenburgLocation

Historic Weather in Cloppenburg — Graph

°F

Cloppenburg temperature yesterday

Maximum temperature yesterday: 64 °F (at 1:20 PM)
Minimum temperature yesterday: 54 °F (at 11:20 PM)
Average temperature yesterday: 60 °F

Past Weeks' High & Low Weather Summary

 TemperatureHumidityPressure
High79 °F (Sep 18, 4:20 PM)100% (Sep 8, 7:20 AM)30.27 "Hg (Sep 8, 7:20 AM)
Low48 °F (Sep 15, 4:20 AM)45% (Sep 18, 4:20 PM)29.83 "Hg (Sep 18, 4:20 PM)
Average61 °F81%30.04 "Hg
* Reported Sep 6 11:20 PM — Sep 21 11:20 PM, Cloppenburg, Weather by CustomWeather, © 2014

Note: Actual official high and low records may vary slightly from our data, if they occured in-between our weather recording intervals... More about our weather records

Advertising

Cloppenburg weather history for previous 24 hours

 ConditionsComfort  
Time TempWeatherWind HumidityBarometerVisibility
11:20 PM
Sep 21
54 °FCool.6 mph88%30.07 "Hg4 mi
10:20 PM55 °FCool.6 mph82%30.04 "Hg5 mi
9:20 PM55 °FCool.5 mph82%30.04 "Hg5 mi
8:20 PM55 °FCool.5 mph77%30.04 "Hg5 mi
7:20 PM59 °FCool.6 mph68%30.04 "Hg4 mi
6:20 PM61 °FRefreshingly cool.8 mph59%30.04 "Hg5 mi
5:20 PM61 °FCool.10 mph63%30.01 "Hg4 mi
4:20 PM63 °FMild.9 mph64%30.01 "Hg4 mi
3:20 PM61 °FCool.6 mph72%30.01 "Hg5 mi
2:20 PM63 °FMild.8 mph56%30.01 "Hg6 mi
1:20 PM64 °FMild.8 mph56%30.01 "Hg5 mi
12:20 PM63 °FMild.7 mph68%30.01 "Hg5 mi
11:20 AM61 °FCool.7 mph77%30.01 "Hg4 mi
10:20 AM61 °FCool.5 mph83%30.01 "Hg4 mi
9:20 AM59 °FCool.6 mph94%29.98 "Hg4 mi
8:20 AM59 °FCool.6 mph94%29.98 "Hg4 mi
7:20 AM59 °FCool.5 mph94%29.95 "Hg2 mi
6:20 AM61 °FCool.5 mph94%29.95 "Hg2 mi
5:20 AM61 °FCool.3 mph94%29.95 "Hg2 mi
4:20 AM61 °FCool.3 mph94%29.95 "Hg1 mi
3:20 AM59 °FCool.5 mph100%29.95 "Hg1 mi
2:20 AM59 °FCool.3 mph94%29.95 "Hg1 mi
1:20 AM59 °FCool.3 mph94%29.95 "Hg1 mi
12:20 AM57 °FCool.3 mph94%29.95 "Hg0 mi
Weather by CustomWeather, © 2014

See weather overviewHow to use our weather pages